GLOBALSTAR M059 [+]

Last updated on Nov. 22, 2019, 4:19 a.m. UTC

1 25944U 99058B   19325.18306166 -.00000052  00000-0  42955-3 0  9992
2 25944  52.0024 312.2074 0000804 299.6750 141.1510 11.99935412918496
UTC
Height (km)
Latitude
Longitude
Inclination
Orbital Period
UTC large
Height (km)
Speed (km/s)
/
Latitude / Longitude
Inclination (degrees)
Orbital Period (minutes)
Azimuth
Elevation
Range (km)
Doppler Factor
iOS Compass Heading
iOS Angle